Regional Weather Roundup
Issued by NWS

Home | Current Version | Previous Version | Graphics & Text | Print | Product List | Glossary On
Versions: 1 2 3 4 5 6 7 8 9 10 11 12 13 14 15 16 17 18 19 20 21 22 23 24 25 26 27 28 29 30 31 32 33 34 35 36 37 38 39 40 41 42 43 44 45 46 47 48 49 50
000
ASUS44 KMEG 200800
RWRTN
TENNESSEE HOURLY STATE WEATHER ROUNDUP
NATIONAL WEATHER SERVICE MEMPHIS TN
200 AM CST SAT DEC 20 2014

TNZ002-004-019-021-049-052-054-088>092-200900-
WEST TENNESSEE

CITY           SKY/WX    TMP DP  RH WIND       PRES   REMARKS
MEMPHIS INTL   PTCLDY    37  31  78 N3        30.23R
NWS MEMPHIS      N/A     33 N/A N/A MISG        N/A
JACKSON        MOCLDY    33  30  88 CALM      30.23R
DYERSBURG      CLOUDY    37  21  52 NE6       30.26R WCI  33
UNION CITY     CLOUDY    34  28  80 N5        30.24R WCI  30
PARIS          CLOUDY    28  27  93 N5        30.23S WCI  23
LEXINGTON      CLOUDY    32  28  86 N6        30.20S WCI  26
SAVANNAH       CLOUDY    36  30  80 CALM      30.22R
$$

TNZ008-025-027-028-033-062-065-066-200900-
NORTH MIDDLE TENNESSEE

CITY           SKY/WX    TMP DP  RH WIND       PRES   REMARKS
NASHVILLE      MOCLDY    35  27  72 N6        30.22S WCI  30
CLARKSVILLE    PTCLDY    30  26  85 N7        30.24S WCI  23
COOKEVILLE     CLOUDY    34  28  80 N3        30.16R
CROSSVILLE     CLOUDY    35  27  72 CALM      30.15S
$$

TNZ061-075-076-078-094-096-097-200900-
SOUTH MIDDLE TENNESSEE

CITY           SKY/WX    TMP DP  RH WIND       PRES   REMARKS
FAYETTEVILLE   CLOUDY    36  28  75 MISG      30.17R
TULLAHOMA      CLOUDY    36  28  75 CALM      30.16S
WINCHESTER     CLOUDY    36  32  87 N5        30.16S WCI  32
SHELBYVILLE    MOCLDY    34  30  86 CALM      30.19S
$$

TNZ017-018-042-046-047-200900-
NORTHEAST TENNESSEE

CITY           SKY/WX    TMP DP  RH WIND       PRES   REMARKS
TRI CITIES     CLOUDY    34  28  79 CALM      30.14S
ELIZABETHTON   MOSUNNY   32  27  80 CALM      30.12F
$$

TNZ012-013-036-069-073-074-200900-
CENTRAL EAST TENNESSEE

CITY           SKY/WX    TMP DP  RH WIND       PRES   REMARKS
KNOXVILLE      CLOUDY    38  29  70 CALM      30.16R
OAK RIDGE      CLOUDY    40  28  62 CALM      30.18R
GATLINBURG     CLOUDY    36  30  80 CALM      30.14S
$$

TNZ083-085-099-200900-
SOUTHEAST TENNESSEE

CITY           SKY/WX    TMP DP  RH WIND       PRES   REMARKS
CHATTANOOGA    CLOUDY    42  30  62 N5        30.18R
$$

SKY/WX REPORTED AS FAIR MEANS FEW OR NO CLOUDS BELOW
12 THOUSAND FEET.



USA.gov is the U.S. government's official web portal to all federal, state and local government web resources and services.